This is the latest recevied weather packets stored in our database for station/object K7NDG. If no packets are shown the sender has not sent any weather packets the latest 10 day(s).
| Time | Temp. | Humidity | Pressure | Rain* | Wind** | Luminosity | Snow |
|---|---|---|---|---|---|---|---|
| 1777052935 | 13.33° C | 78% | 1020.4 hPa | 0 mm | - | 488 W/m² | - |
| 1777052631 | 12.78° C | 76% | 1020.6 hPa | 0 mm | - | 483 W/m² | - |
| 1777052326 | 12.78° C | 77% | 1020.8 hPa | 0 mm | - | 450 W/m² | - |
| 1777052022 | 12.78° C | 78% | 1020.6 hPa | 0 mm | - | 462 W/m² | - |
| 1777051720 | 12.78° C | 82% | 1020.9 hPa | 0 mm | - | 306 W/m² | - |
| 1777051416 | 12.22° C | 82% | 1020.8 hPa | 0 mm | - | 333 W/m² | - |
| 1777051112 | 11.67° C | 82% | 1020.7 hPa | 0 mm | - | 372 W/m² | - |
| 1777050807 | 11.67° C | 84% | 1020.9 hPa | 0 mm | - | 318 W/m² | - |
| 1777050503 | 11.67° C | 85% | 1021.1 hPa | 0 mm | - | 340 W/m² | - |
| 1777050202 | 11.11° C | 85% | 1020.9 hPa | 0 mm | - | 181 W/m² | - |
| 1777049898 | 11.11° C | 87% | 1020.8 hPa | 0 mm | - | 185 W/m² | - |
| 1777049593 | 10.56° C | 90% | 1021.1 hPa | 0 mm | - | 182 W/m² | - |
| 1777049291 | 10° C | 93% | 1021.2 hPa | 0 mm | - | 229 W/m² | - |
| 1777048987 | 10° C | 94% | 1021.4 hPa | 0 mm | - | 434 W/m² | - |
| 1777048683 | 9.44° C | 95% | 1021.4 hPa | 0 mm | - | 436 W/m² | - |
| 1777048378 | 8.89° C | 96% | 1021.5 hPa | 0 mm | - | 445 W/m² | - |
| 1777048077 | 8.89° C | 95% | 1021.6 hPa | 0 mm | - | 252 W/m² | - |
| 1777047773 | 8.33° C | 96% | 1021.7 hPa | 0 mm | - | 138 W/m² | - |
| 1777047470 | 7.78° C | 96% | 1021.6 hPa | 0 mm | - | 135 W/m² | - |
| 1777047169 | 7.78° C | 96% | 1021.7 hPa | 0 mm | - | 137 W/m² | - |
| 1777046866 | 7.22° C | 96% | 1021.9 hPa | 0 mm | - | 149 W/m² | - |
| 1777046563 | 7.22° C | 96% | 1021.7 hPa | 0 mm | - | 146 W/m² | - |
| 1777046258 | 7.22° C | 96% | 1021.7 hPa | 0 mm | - | 172 W/m² | - |
| 1777045954 | 6.67° C | 97% | 1022 hPa | 0 mm | - | 141 W/m² | - |
| 1777045651 | 6.67° C | 97% | 1021.8 hPa | 0 mm | - | 148 W/m² | - |
* Rain latest hour (hover to see other rain measurements)
** Current wind speed in m/s (hover to see current wind gust speed)